| time (UTC) | temp C | wind direction | speed KPH | gust KPH | rain 1hr cm | rain 24hr cm | rain mn cm | humidity % | barometer mb |
| 20260503050026 | 10 | 329 | 3.2 | 0.0 | 0.00 | 0.00 | 0.00 | 41 | 1010.2 |
| 20260503044526 | 10 | 278 | 3.2 | 0.0 | 0.00 | 0.00 | 0.00 | 41 | 1010.1 |
| 20260503043023 | 10 | 337 | 3.2 | 0.0 | 0.00 | 0.00 | 0.00 | 39 | 1010.2 |
| 20260503041522 | 10 | 308 | 3.2 | 0.0 | 0.00 | 0.00 | 0.00 | 38 | 1010.3 |
| 20260503040018 | 11 | 320 | 4.8 | 0.0 | 0.00 | 0.00 | 0.00 | 37 | 1010.2 |
| 20260503034533 | 11 | 327 | 1.6 | 0.0 | 0.00 | 0.00 | 0.00 | 38 | 1010.1 |
| 20260503033018 | 11 | 339 | 1.6 | 0.0 | 0.00 | 0.00 | 0.00 | 39 | 1010.1 |
| 20260503031520 | 11 | 271 | 1.6 | 0.0 | 0.00 | 0.00 | 0.00 | 38 | 1010.1 |
| 20260503030017 | 11 | 295 | 1.6 | 0.0 | 0.00 | 0.00 | 0.00 | 37 | 1010.2 |
| 20260503024517 | 11 | 320 | 1.6 | 0.0 | 0.00 | 0.00 | 0.00 | 35 | 1010.1 |
| 20260503023017 | 11 | 315 | 3.2 | 0.0 | 0.00 | 0.00 | 0.00 | 35 | 1010.0 |
| 20260503021517 | 12 | 336 | 3.2 | 0.0 | 0.00 | 0.00 | 0.00 | 35 | 1010.1 |
| 20260503020016 | 12 | 246 | 1.6 | 0.0 | 0.00 | 0.00 | 0.00 | 35 | 1010.2 |
| 20260503014518 | 12 | 278 | 3.2 | 0.0 | 0.00 | 0.00 | 0.00 | 35 | 1010.2 |
| 20260503013018 | 12 | 335 | 1.6 | 0.0 | 0.00 | 0.00 | 0.00 | 35 | 1010.1 |
| 20260503011516 | 12 | 335 | 3.2 | 0.0 | 0.00 | 0.00 | 0.00 | 34 | 1010.0 |
| 20260503010016 | 12 | 315 | 3.2 | 0.0 | 0.00 | 0.00 | 0.00 | 34 | 1009.8 |
| 20260503004515 | 12 | 288 | 3.2 | 0.0 | 0.00 | 0.00 | 0.00 | 34 | 1009.6 |
| 20260503003017 | 12 | 327 | 1.6 | 0.0 | 0.00 | 0.00 | 0.00 | 34 | 1009.4 |
| 20260503001516 | 13 | 330 | 0.0 | 0.0 | 0.00 | 0.00 | 0.00 | 36 | 1009.3 |
| 20260503000016 | 13 | 213 | 3.2 | 0.0 | 0.00 | 0.00 | 0.00 | 35 | 1009.3 |
| 20260502234515 | 13 | 203 | 6.4 | 0.0 | 0.00 | 0.00 | 0.00 | 34 | 1009.3 |
| 20260502233015 | 14 | 199 | 3.2 | 0.0 | 0.00 | 0.00 | 0.00 | 35 | 1009.2 |
| 20260502231519 | 14 | 191 | 4.8 | 0.0 | 0.00 | 0.00 | 0.00 | 33 | 1009.1 |
| 20260502230014 | 15 | 193 | 4.8 | 0.0 | 0.00 | 0.00 | 0.00 | 33 | 1009.0 |
| 20260502224513 | 15 | 191 | 6.4 | 0.0 | 0.00 | 0.00 | 0.00 | 34 | 1008.9 |
| 20260502223015 | 15 | 202 | 6.4 | 0.0 | 0.00 | 0.00 | 0.00 | 33 | 1009.1 |
| 20260502221513 | 15 | 192 | 6.4 | 0.0 | 0.00 | 0.00 | 0.00 | 35 | 1009.0 |
| 20260502220013 | 15 | 164 | 4.8 | 0.0 | 0.00 | 0.00 | 0.00 | 33 | 1009.0 |
| 20260502214523 | 15 | 200 | 6.4 | 0.0 | 0.00 | 0.00 | 0.00 | 33 | 1008.9 |
| 20260502213013 | 16 | 188 | 4.8 | 0.0 | 0.00 | 0.00 | 0.00 | 32 | 1008.7 |
| 20260502211526 | 16 | 195 | 9.7 | 0.0 | 0.00 | 0.00 | 0.00 | 31 | 1008.6 |
| 20260502210011 | 15 | 191 | 4.8 | 0.0 | 0.00 | 0.00 | 0.00 | 36 | 1008.7 |
| 20260502204511 | 15 | 202 | 6.4 | 0.0 | 0.00 | 0.00 | 0.00 | 34 | 1008.7 |
| 20260502203010 | 16 | 216 | 6.4 | 0.0 | 0.00 | 0.00 | 0.00 | 31 | 1008.8 |
| 20260502201510 | 16 | 202 | 4.8 | 0.0 | 0.00 | 0.00 | 0.00 | 31 | 1009.0 |
| 20260502200012 | 16 | 210 | 4.8 | 0.0 | 0.00 | 0.00 | 0.00 | 31 | 1009.2 |
| 20260502194512 | 16 | 229 | 4.8 | 0.0 | 0.00 | 0.00 | 0.00 | 32 | 1009.5 |
| 20260502193012 | 16 | 205 | 9.7 | 0.0 | 0.00 | 0.00 | 0.00 | 35 | 1009.7 |
| 20260502191514 | 17 | 202 | 6.4 | 0.0 | 0.00 | 0.00 | 0.00 | 38 | 1009.9 |
| 20260502190108 | 16 | 176 | 6.4 | 0.0 | 0.00 | 0.00 | 0.00 | 37 | 1009.9 |
| 20260502184601 | 15 | 202 | 6.4 | 0.0 | 0.00 | 0.00 | 0.00 | 39 | 1010.1 |
| 20260502183055 | 15 | 220 | 4.8 | 0.0 | 0.00 | 0.00 | 0.00 | 41 | 1010.3 |
| 20260502181556 | 15 | 254 | 1.6 | 0.0 | 0.00 | 0.00 | 0.00 | 42 | 1010.4 |
| 20260502180119 | 16 | 213 | 6.4 | 0.0 | 0.00 | 0.00 | 0.00 | 43 | 1010.4 |
| 20260502163039 | 14 | 161 | 6.4 | 0.0 | 0.00 | 0.00 | 0.00 | 55 | 1011.2 |
| 20260502161536 | 13 | 207 | 8.0 | 0.0 | 0.00 | 0.00 | 0.00 | 56 | 1011.1 |
| 20260502151527 | 11 | 171 | 4.8 | 0.0 | 0.00 | 0.00 | 0.00 | 65 | 1011.4 |
| 20260502123024 | 10 | 169 | 4.8 | 0.0 | 0.00 | 0.00 | 0.00 | 77 | 1011.4 |
| 20260502121527 | 10 | 188 | 3.2 | 0.0 | 0.00 | 0.00 | 0.00 | 80 | 1011.3 |
| 20260502114522 | 10 | 196 | 1.6 | 0.0 | 0.00 | 0.00 | 0.00 | 83 | 1011.3 |
| 20260502113021 | 10 | 196 | 1.6 | 0.0 | 0.00 | 0.00 | 0.00 | 84 | 1011.2 |
| 20260502111524 | 10 | 196 | 3.2 | 0.0 | 0.00 | 0.00 | 0.00 | 85 | 1010.9 |
| 20260502110019 | 10 | 117 | 0.0 | 0.0 | 0.00 | 0.00 | 0.00 | 86 | 1010.9 |
| 20260502104525 | 9 | 76 | 0.0 | 0.0 | 0.00 | 0.00 | 0.00 | 86 | 1010.7 |
| 20260502103017 | 9 | 75 | 0.0 | 0.0 | 0.00 | 0.00 | 0.00 | 84 | 1010.3 |
| 20260502101517 | 9 | 76 | 0.0 | 0.0 | 0.00 | 0.00 | 0.00 | 84 | 1010.2 |
| 20260502091514 | 10 | 172 | 1.6 | 0.0 | 0.00 | 0.00 | 0.00 | 81 | 1010.8 |
| 20260502071506 | 10 | 138 | 6.4 | 0.0 | 0.00 | 0.00 | 0.00 | 75 | 1010.5 |
| 20260502070004 | 11 | 137 | 8.0 | 0.0 | 0.00 | 0.00 | 0.00 | 74 | 1010.4 |
| 20260502064501 | 11 | 140 | 4.8 | 0.0 | 0.00 | 0.00 | 0.00 | 72 | 1010.7 |
| 20260502063002 | 11 | 116 | 6.4 | 0.0 | 0.00 | 0.00 | 0.00 | 71 | 1010.9 |
| 20260502061600 | 11 | 131 | 6.4 | 0.0 | 0.00 | 0.00 | 0.00 | 70 | 1011.2 |
| 20260502060110 | 11 | 127 | 6.4 | 0.0 | 0.00 | 0.00 | 0.00 | 69 | 1011.1 |
| 20260502054555 | 11 | 145 | 1.6 | 0.0 | 0.00 | 0.00 | 0.00 | 69 | 1010.9 |
| 20260502053101 | 11 | 131 | 6.4 | 0.0 | 0.00 | 0.00 | 0.00 | 67 | 1011.0 |
| 20260502051600 | 11 | 131 | 3.2 | 0.0 | 0.00 | 0.00 | 0.00 | 66 | 1010.9 |